Regional Weather Roundup
Issued by NWS

Home | Current Version | Previous Version | Text Only | Print | Product List | Glossary On
Versions: 1 2 3 4 5 6 7 8 9 10 11 12 13 14 15 16 17 18 19 20 21 22 23 24 25 26 27 28 29 30 31 32 33 34 35 36 37 38 39 40 41 42 43 44 45 46 47 48 49 50
571
ASUS43 KMKX 171121
RWRWI

WISCONSIN REGIONAL WEATHER ROUNDUP
NATIONAL WEATHER SERVICE MILWAUKEE/SULLIVAN WI
600 AM CDT THU AUG 17 2017

NOTE: "FAIR" INDICATES FEW OR NO CLOUDS BELOW 12,000 FEET WITH NO
SIGNIFICANT WEATHER AND/OR OBSTRUCTIONS TO VISIBILITY.

WIZ001-002-006>008-014>016-023>028-171200-
NORTHWEST WISCONSIN

CITY           SKY/WX    TMP DP  RH WIND       PRES   REMARKS
SUPERIOR ARPT    N/A     61  61  99 NE12G23   29.62S
ASHLAND        CLOUDY    62  61  96 NE10      29.63F
HAYWARD        CLOUDY    65  62  90 E9        29.59F
SIREN          CLOUDY    66  65  96 NE3       29.55F
CUMBERLAND     CLOUDY    64  63  94 SE5       29.57S
RICE LAKE      CLOUDY    66  65  94 SE6       29.58F
CHETEK         CLOUDY    66  65  96 S8        29.57F
LADYSMITH      CLOUDY    66  65  97 SE8       29.60F
EAU CLAIRE     CLOUDY    67  65  93 S9        29.56F
MENOMONIE      RAIN      67  65  94 SE7       29.55F
NEW RICHMOND   RAIN      66  65  97 SE5       29.53F
OSCEOLA        CLOUDY    66  66 100 E8        29.55F
$$

WIZ003>005-009-010-017-018-171200-
NORTH CENTRAL WISCONSIN

CITY           SKY/WX    TMP DP  RH WIND       PRES   REMARKS
MANITOWISH WTR CLOUDY    62  62 100 E6        29.66F FOG
ARBOR VITAE    CLOUDY    63  62  96 E6        29.65F
WOODRUFF       CLOUDY    63  62  96 E6        29.65F
RHINELANDER    CLOUDY    64  64 100 E6        29.66F FOG
EAGLE RIVER    LGT RAIN  64  64 100 SE7       29.67F
LAND O LAKES   CLOUDY    64  64  98 E7        29.69F
PHILLIPS       CLOUDY    63  63 100 E5        29.62F
TOMAHAWK         N/A     64  63  96 CALM      29.64F FOG
MEDFORD        CLOUDY    66  65  99 SE7       29.62F FOG
MERRILL        FOG       66  66 100 SE6       29.63F VSB 1
$$

WIZ029-030-035-036-043>047-171200-
CENTRAL WISCONSIN

CITY           SKY/WX    TMP DP  RH WIND       PRES   REMARKS
WAUSAU         CLOUDY    67  67 100 SE6       29.61F FOG
MOSINEE        FOG       66  66 100 SE5       29.65F VSB 1
MARSHFIELD     MOCLDY    70  67  90 S13G20    29.61F
STEVENS POINT  CLOUDY    69  69 100 S7        29.64F FOG
WAUPACA        CLOUDY    73  72  98 SE8       29.66R FOG
WAUTOMA        CLOUDY    72  72 100 SE7       29.66
WISC RAPIDS    CLOUDY    71  71 100 S7        29.64S
CAMP DOUGLAS   CLEAR     69  68  96 SW3       29.64R
$$

WIZ011>013-019>022-031-037>040-048>050-171200-
NORTHEAST WISCONSIN

CITY           SKY/WX    TMP DP  RH WIND       PRES   REMARKS
ANTIGO         FOG       65  65 100 SE9       29.67F VSB 1/4
SHAWANO        CLOUDY    72  70  93 SE8       29.65F FOG
OCONTO         CLOUDY    71  70  96 S7        29.66F
STURGEON BAY   CLOUDY    70  69  97 S12       29.70  FOG
GREEN BAY      LGT RAIN  72  72 100 S7        29.67F FOG
MANITOWOC      RAIN      72  70  93 S13       29.70  FOG
APPLETON       CLOUDY    72  72 100 S10       29.66F FOG
CLINTONVILLE   CLOUDY    70  70 100 SE7       29.65S FOG
OSHKOSH        LGT RAIN  71  68  90 S9        29.67S
$$

WIZ032>034-041-042-053>061-171200-
SOUTHWEST WISCONSIN

CITY           SKY/WX    TMP DP  RH WIND       PRES   REMARKS
LA CROSSE      CLOUDY    71  65  81 S10       29.61S
SPARTA         CLOUDY    67  64  89 S8        29.64S
VIROQUA        CLOUDY    66  65  97 SW13G18   29.67S
BOSCOBEL       CLEAR     70  65  84 SW8       29.67
PRAIRIE DU CHI CLOUDY    68  63  83 SW10G20   29.68R
PLATTEVILLE    CLEAR     68  68 100 SW6       29.71S
$$

WIZ056-057-062-063-064-067-068-171200-
SOUTH CENTRAL WISCONSIN

CITY           SKY/WX    TMP DP  RH WIND       PRES   REMARKS
REEDSBURG      CLOUDY    69  69 100 S6        29.66S
BARABOO/DELLS  CLOUDY    70  66  88 SW10      29.67S
LONE ROCK      CLEAR     71  68  90 SW8       29.67
MINERAL POINT  CLEAR     70  70 100 SW7       29.71S
MADISON        MOCLDY    73  71  93 S12       29.69
MIDDLETON      CLOUDY    73  73 100 SW8       29.70S
WATERTOWN      CLOUDY    72  72 100 S9        29.71S
MONROE         CLOUDY    70  70 100 S13       29.72F
JANESVILLE     CLOUDY    72  72 100 S9        29.73S
$$

WIZ051-052-058>065-066-070>072-171200-
SOUTHEAST WISCONSIN

CITY           SKY/WX    TMP DP  RH WIND       PRES   REMARKS
MILWAUKEE      CLOUDY    73  71  93 S12       29.73F
WAUKESHA       CLOUDY    70  70 100 SW9       29.75S
MILWAUKEE/TIMM CLOUDY    70  66  88 S9G16     29.74S
RACINE         CLOUDY    72  70  93 SW10      29.76
KENOSHA        MOCLDY    72  69  90 SW9       29.76
FOND DU LAC    HVY RAIN  71  68  90 S6        29.68  FOG
SHEBOYGAN      CLOUDY    73  73 100 S12       29.71  FOG
WEST BEND      CLOUDY    72  70  94 S8        29.72R
JUNEAU         CLOUDY    71  70  96 S12       29.72R
$$

LSZ147-162-171200-
LAKE SUPERIOR

STATION/POSITION TIME  TEMP    WIND        PRES    WAVE
                       AIR SEA DIR/SP/G            HT/PER
                 (UTC) (F)     (DEG/KT/KT) (MB)    (FT/S)
W MID LAKE BUOY  1050   61 60   40/ 21/ 23 1004.6F   2/ 4
DEVILS ISLAND    1100   61      60/ 27/ 30 1003.5F
SAXON HARBOR     1030   63      70/  5/  8 1003.4F
$$

LMZ867-665-643>646-171200-
LAKE MICHIGAN

STATION/POSITION TIME  TEMP    WIND        PRES    WAVE
                       AIR SEA DIR/SP/G            HT/PER
                 (UTC) (F)     (DEG/KT/KT) (MB)    (FT/S)
S GREEN BAY BUOY 1100   72 71  150/ 12/ 14 1004.7
N MID LAKE BUOY  1050   68 68  130/ 17/ 21 1006.3F   3/ 4
NORTHPORT PIER   1036   70     140/ 20/ 26 1005.4F
KEWAUNEE LAKESHO 1054   71     170/ 10/ 14 1004.9F
SHEBOYGAN LAKESH 1100   72     180/ 16/ 17 1005.4R
PORT WASHINGTON  1030   74     190/  8/ 11 1007.5R
ATWATER BUOY     1039   72 71  190/ 16/ 17 1007.2R
MILWAUKEE LAKESH 1100   72     200/ 13/ 15   N/A
S MID LAKE BUOY  1050   74 71  180/ 16/ 19 1007.7R   2/ 4
KENOSHA   LAKESH 1100   72     210/  8/ 14 1007.5
$$

TC  - TEMPERATURE IN CELSIUS
VSB - VISIBILITY IN STATUTE MILES
WCI - WIND CHILL INDEX
HX  - HEAT INDEX





USA.gov is the U.S. government's official web portal to all federal, state and local government web resources and services.